When you browse on this site, cookies collect data to enhance your experience and personalize the content and advertising you see.
Visit our Privacy Policy to learn more. By continuing to use the site, you agree to this use of cookies and data.
  • In Latvia
  • List of Countries
  • For 7 days
  • Water Temperature
  • Weather Map
  • Weather Widgets
  • user-avatar
    Login

    Hourly Weather Syców

    Today, 26 May, Tuesday

    Time Temperature Precipitation Wind Pressure Humidity
    00:00 +8°C° 0 mm 3 mps 756 mmHg 95%
    01:00 +8°C° 0 mm 2 mps 756 mmHg 97%
    02:00 +7°C° 0 mm 2 mps 756 mmHg 97%
    03:00 +7°C° 0 mm 2 mps 756 mmHg 97%
    04:00 +7°C° 0 mm 2 mps 756 mmHg 97%
    05:00 +8°C° 0 mm 3 mps 756 mmHg 94%
    06:00 +9°C° 0 mm 3 mps 757 mmHg 92%
    07:00 +10°C° 0 mm 3 mps 757 mmHg 90%
    08:00 +11°C° 0.1 mm 4 mps 757 mmHg 86%
    09:00 +12°C° 0.1 mm 4 mps 757 mmHg 83%
    10:00 +13°C° 0.1 mm 4 mps 757 mmHg 80%
    11:00 +14°C° 0.1 mm 5 mps 757 mmHg 75%
    12:00 +15°C° 0.1 mm 5 mps 757 mmHg 71%
    13:00 +16°C° 0.1 mm 5 mps 757 mmHg 66%
    14:00 +16°C° 0.2 mm 5 mps 757 mmHg 66%
    15:00 +16°C° 0.2 mm 5 mps 757 mmHg 66%
    16:00 +16°C° 0.2 mm 5 mps 757 mmHg 65%
    17:00 +15°C° 0.1 mm 4 mps 757 mmHg 71%
    18:00 +14°C° 0.1 mm 3 mps 757 mmHg 76%
    19:00 +13°C° 0.1 mm 3 mps 757 mmHg 82%
    20:00 +12°C° 0 mm 3 mps 757 mmHg 86%
    21:00 +11°C° 0 mm 3 mps 758 mmHg 89%
    22:00 +10°C° 0 mm 3 mps 758 mmHg 93%
    23:00 +10°C° 0 mm 3 mps 758 mmHg 93%

    Tomorrow, 27 May, Wednesday

    Time Temperature Precipitation Wind Pressure Humidity
    00:00 +9°C° 0 mm 3 mps 758 mmHg 94%
    01:00 +9°C° 0 mm 3 mps 758 mmHg 94%
    02:00 +8°C° 0 mm 2 mps 758 mmHg 94%
    03:00 +7°C° 0 mm 2 mps 758 mmHg 94%
    04:00 +7°C° 0 mm 2 mps 758 mmHg 93%
    05:00 +8°C° 0 mm 2 mps 758 mmHg 88%
    06:00 +10°C° 0 mm 3 mps 758 mmHg 83%
    07:00 +11°C° 0 mm 3 mps 758 mmHg 78%
    08:00 +13°C° 0 mm 3 mps 758 mmHg 72%
    09:00 +14°C° 0 mm 3 mps 758 mmHg 67%
    10:00 +17°C° 0 mm 3 mps 758 mmHg 62%
    11:00 +17°C° 0 mm 3 mps 757 mmHg 59%
    12:00 +18°C° 0 mm 3 mps 757 mmHg 57%
    13:00 +18°C° 0 mm 3 mps 756 mmHg 55%
    14:00 +18°C° 0 mm 3 mps 756 mmHg 56%
    15:00 +19°C° 0 mm 4 mps 756 mmHg 56%
    16:00 +19°C° 0 mm 4 mps 755 mmHg 57%
    17:00 +17°C° 0 mm 3 mps 755 mmHg 62%
    18:00 +16°C° 0 mm 2 mps 755 mmHg 67%
    19:00 +15°C° 0 mm 1 mps 755 mmHg 72%
    20:00 +14°C° 0 mm 1 mps 755 mmHg 73%
    21:00 +13°C° 0 mm 1 mps 755 mmHg 73%
    22:00 +12°C° 0 mm 1 mps 755 mmHg 74%
    23:00 +12°C° 0 mm 2 mps 755 mmHg 75%

    Day after tomorrow, 28 May, Thursday

    Time Temperature Precipitation Wind Pressure Humidity
    00:00 +13°C° 0 mm 2 mps 755 mmHg 76%
    01:00 +12°C° 0 mm 3 mps 755 mmHg 77%
    02:00 +11°C° 0.4 mm 3 mps 754 mmHg 82%
    03:00 +11°C° 0.4 mm 4 mps 754 mmHg 87%
    04:00 +10°C° 0.4 mm 4 mps 754 mmHg 92%
    05:00 +10°C° 0 mm 4 mps 754 mmHg 89%
    06:00 +11°C° 0 mm 4 mps 754 mmHg 86%
    07:00 +10°C° 0 mm 5 mps 754 mmHg 82%
    08:00 +12°C° 0 mm 5 mps 754 mmHg 76%
    09:00 +13°C° 0 mm 6 mps 754 mmHg 70%
    10:00 +15°C° 0 mm 6 mps 754 mmHg 63%
    11:00 +15°C° 0.2 mm 6 mps 753 mmHg 64%
    12:00 +16°C° 0.2 mm 6 mps 753 mmHg 64%
    13:00 +16°C° 0.2 mm 7 mps 753 mmHg 64%
    14:00 +16°C° 0.4 mm 7 mps 752 mmHg 66%
    15:00 +15°C° 0.4 mm 7 mps 752 mmHg 69%
    16:00 +15°C° 0.4 mm 7 mps 752 mmHg 71%
    17:00 +14°C° 0.2 mm 6 mps 752 mmHg 74%
    18:00 +13°C° 0.2 mm 5 mps 752 mmHg 77%
    19:00 +12°C° 0.2 mm 4 mps 753 mmHg 80%
    20:00 +11°C° 0 mm 4 mps 753 mmHg 79%
    21:00 +10°C° 0 mm 3 mps 753 mmHg 79%
    22:00 +9°C° 0 mm 3 mps 753 mmHg 78%
    23:00 +8°C° 0 mm 3 mps 753 mmHg 80%

    29 May, Friday

    Time Temperature Precipitation Wind Pressure Humidity
    00:00 +8°C° 0 mm 3 mps 753 mmHg 82%
    01:00 +7°C° 0 mm 3 mps 753 mmHg 84%
    02:00 +7°C° 0 mm 3 mps 753 mmHg 87%
    03:00 +5°C° 0 mm 3 mps 753 mmHg 89%
    04:00 +5°C° 0 mm 3 mps 753 mmHg 91%
    05:00 +6°C° 0 mm 4 mps 753 mmHg 84%
    06:00 +7°C° 0 mm 4 mps 753 mmHg 76%
    07:00 +8°C° 0 mm 5 mps 753 mmHg 68%
    08:00 +10°C° 0 mm 5 mps 753 mmHg 64%
    09:00 +11°C° 0 mm 6 mps 753 mmHg 60%
    10:00 +13°C° 0 mm 6 mps 753 mmHg 55%
    11:00 +14°C° 0 mm 6 mps 753 mmHg 54%
    12:00 +14°C° 0 mm 6 mps 752 mmHg 53%
    13:00 +15°C° 0 mm 6 mps 752 mmHg 52%
    14:00 +15°C° 0 mm 6 mps 752 mmHg 53%
    15:00 +15°C° 0 mm 6 mps 752 mmHg 53%
    16:00 +15°C° 0 mm 6 mps 752 mmHg 53%
    17:00 +14°C° 0 mm 5 mps 752 mmHg 60%
    18:00 +13°C° 0 mm 4 mps 752 mmHg 66%
    19:00 +12°C° 0 mm 4 mps 752 mmHg 72%
    20:00 +10°C° 0 mm 3 mps 752 mmHg 75%
    21:00 +9°C° 0 mm 3 mps 752 mmHg 78%
    22:00 +7°C° 0 mm 2 mps 753 mmHg 80%
    23:00 +7°C° 0 mm 2 mps 752 mmHg 82%

    30 May, Saturday

    Time Temperature Precipitation Wind Pressure Humidity
    00:00 +6°C° 0 mm 2 mps 752 mmHg 83%
    01:00 +6°C° 0 mm 2 mps 752 mmHg 85%
    02:00 +5°C° 0 mm 2 mps 752 mmHg 87%
    03:00 +5°C° 0 mm 2 mps 752 mmHg 89%
    04:00 +5°C° 0 mm 2 mps 752 mmHg 90%
    05:00 +5°C° 0 mm 3 mps 752 mmHg 83%
    06:00 +8°C° 0 mm 3 mps 752 mmHg 77%
    07:00 +10°C° 0 mm 4 mps 752 mmHg 70%
    08:00 +11°C° 0 mm 4 mps 752 mmHg 67%
    09:00 +12°C° 0 mm 5 mps 751 mmHg 64%
    10:00 +13°C° 0 mm 5 mps 751 mmHg 61%
    11:00 +13°C° 0.2 mm 5 mps 751 mmHg 59%
    12:00 +14°C° 0.2 mm 5 mps 751 mmHg 58%
    13:00 +15°C° 0.2 mm 5 mps 750 mmHg 56%
    14:00 +15°C° 0.2 mm 5 mps 750 mmHg 56%
    15:00 +15°C° 0.2 mm 5 mps 750 mmHg 56%
    16:00 +15°C° 0.2 mm 4 mps 749 mmHg 55%
    17:00 +14°C° 0.1 mm 4 mps 749 mmHg 63%
    18:00 +13°C° 0.1 mm 3 mps 749 mmHg 70%
    19:00 +12°C° 0.1 mm 3 mps 749 mmHg 77%
    20:00 +11°C° 0 mm 3 mps 749 mmHg 80%
    21:00 +10°C° 0 mm 2 mps 749 mmHg 82%
    22:00 +8°C° 0 mm 2 mps 749 mmHg 85%
    23:00 +8°C° 0 mm 2 mps 749 mmHg 86%

    31 May, Sunday

    Time Temperature Precipitation Wind Pressure Humidity
    00:00 +7°C° 0 mm 2 mps 749 mmHg 88%
    01:00 +7°C° 0 mm 3 mps 749 mmHg 89%
    02:00 +7°C° 0.1 mm 3 mps 748 mmHg 89%
    03:00 +7°C° 0.1 mm 3 mps 748 mmHg 88%
    04:00 +7°C° 0.1 mm 3 mps 748 mmHg 87%
    05:00 +6°C° 0.9 mm 4 mps 748 mmHg 90%
    06:00 +6°C° 0.9 mm 4 mps 748 mmHg 92%
    07:00 +6°C° 0.9 mm 5 mps 747 mmHg 94%
    08:00 +7°C° 0.8 mm 4 mps 747 mmHg 94%
    09:00 +7°C° 0.8 mm 4 mps 747 mmHg 94%
    10:00 +8°C° 0.8 mm 4 mps 747 mmHg 94%
    11:00 +8°C° 0.3 mm 4 mps 747 mmHg 93%
    12:00 +8°C° 0.3 mm 4 mps 747 mmHg 93%
    13:00 +10°C° 0.3 mm 4 mps 747 mmHg 93%
    14:00 +10°C° 0.1 mm 4 mps 746 mmHg 93%
    15:00 +10°C° 0.1 mm 4 mps 746 mmHg 93%
    16:00 +10°C° 0.1 mm 3 mps 746 mmHg 92%
    17:00 +10°C° 0.2 mm 3 mps 746 mmHg 93%
    18:00 +10°C° 0.2 mm 3 mps 746 mmHg 95%
    19:00 +10°C° 0.2 mm 3 mps 745 mmHg 96%
    20:00 +10°C° 0.6 mm 3 mps 745 mmHg 96%
    21:00 +9°C° 0.6 mm 3 mps 745 mmHg 97%
    22:00 +9°C° 0.6 mm 3 mps 745 mmHg 97%
    23:00 +9°C° 1 mm 3 mps 745 mmHg 97%
    Show more